DAL2RE KROC-KDTW

Flight info

Callsign DAL2RE
Flight time N/A
Altitude 40000
Route GEE DONEO TPGUN2
Aircraft A359/H-SDE2E3GHIJ3J4J5LM1ORWXY/LB1D1

Departure

Time 2026-05-08 00:09
Airport Frederick Douglass Greater Rochester International Airport (KROC)

Arrival

Time N/A
Airport Detroit Metropolitan Wayne County Airport (KDTW)
Time Latitude Longitude Altitude Speed Heading
2026-05-07 23:40 43.12564 -77.66762 575 ft 4 kts 66°
2026-05-07 23:58 43.12562 -77.66767 576 ft 4 kts 66°
2026-05-07 23:58 43.12551 -77.66801 574 ft 4 kts 66°
2026-05-07 23:59 43.12540 -77.66834 575 ft 4 kts 66°
2026-05-07 23:59 43.12530 -77.66865 574 ft 2 kts 66°
2026-05-07 23:59 43.12541 -77.66832 577 ft 4 kts 66°
2026-05-07 23:59 43.12554 -77.66795 575 ft 4 kts 66°
2026-05-08 00:00 43.12556 -77.66787 575 ft 0 kts 66°
2026-05-08 00:01 43.12555 -77.66792 575 ft 2 kts 70°
2026-05-08 00:02 43.12553 -77.66800 574 ft 1 kts 79°
2026-05-08 00:02 43.12554 -77.66819 572 ft 2 kts 139°
2026-05-08 00:02 43.12571 -77.66829 572 ft 3 kts 176°
2026-05-08 00:02 43.12573 -77.66829 572 ft 0 kts 179°
2026-05-08 00:05 43.12571 -77.66829 568 ft 1 kts 180°
2026-05-08 00:06 43.12542 -77.66840 576 ft 7 kts 205°
2026-05-08 00:06 43.12514 -77.66904 575 ft 8 kts 260°
2026-05-08 00:06 43.12508 -77.66998 573 ft 11 kts 265°
2026-05-08 00:06 43.12508 -77.67060 572 ft 0 kts 271°
2026-05-08 00:08 43.12508 -77.67067 572 ft 7 kts 271°
2026-05-08 00:08 43.12522 -77.67195 576 ft 13 kts 268°
2026-05-08 00:08 43.12500 -77.67248 577 ft 8 kts 217°
2026-05-08 00:08 43.12428 -77.67309 576 ft 23 kts 212°
2026-05-08 00:09 43.11957 -77.67710 575 ft 141 kts 211°
2026-05-08 00:09 43.10846 -77.68606 989 ft 213 kts 211°
2026-05-08 00:09 43.09416 -77.69695 2058 ft 256 kts 210°
2026-05-08 00:09 43.07823 -77.70897 3170 ft 266 kts 210°
2026-05-08 00:10 43.06231 -77.72125 4133 ft 260 kts 212°
2026-05-08 00:10 43.04688 -77.73378 4752 ft 257 kts 213°
2026-05-08 00:10 43.03198 -77.74677 4983 ft 256 kts 219°
2026-05-08 00:10 43.01979 -77.76398 5342 ft 253 kts 237°
2026-05-08 00:11 43.01300 -77.78598 6196 ft 252 kts 257°
2026-05-08 00:11 43.00962 -77.80935 7305 ft 249 kts 260°
2026-05-08 00:11 43.00686 -77.83273 8332 ft 250 kts 261°
2026-05-08 00:11 43.00422 -77.85629 9340 ft 252 kts 261°
2026-05-08 00:12 43.00159 -77.88013 10289 ft 256 kts 261°
2026-05-08 00:12 42.99885 -77.90497 10825 ft 275 kts 261°
2026-05-08 00:12 42.99591 -77.93171 11248 ft 294 kts 261°
2026-05-08 00:12 42.99284 -77.95983 11903 ft 303 kts 261°
2026-05-08 00:13 42.98970 -77.98861 12695 ft 309 kts 261°
2026-05-08 00:13 42.98651 -78.01776 13516 ft 313 kts 261°
2026-05-08 00:13 42.98330 -78.04691 14246 ft 316 kts 261°
2026-05-08 00:13 42.98000 -78.07680 14972 ft 320 kts 261°
2026-05-08 00:14 42.97665 -78.10700 15720 ft 324 kts 261°
2026-05-08 00:14 42.97324 -78.13764 16485 ft 327 kts 261°
2026-05-08 00:14 42.96979 -78.16848 17247 ft 330 kts 261°
2026-05-08 00:14 42.96631 -78.19962 17996 ft 334 kts 261°
2026-05-08 00:15 42.96278 -78.23108 18681 ft 337 kts 261°
2026-05-08 00:15 42.95921 -78.26284 19325 ft 339 kts 261°
2026-05-08 00:15 42.95566 -78.29436 19981 ft 342 kts 260°
2026-05-08 00:15 42.95203 -78.32651 20634 ft 344 kts 260°
2026-05-08 00:16 42.94834 -78.35900 21275 ft 347 kts 260°
2026-05-08 00:16 42.94463 -78.39166 21901 ft 350 kts 261°
2026-05-08 00:16 42.94086 -78.42466 22520 ft 353 kts 261°
2026-05-08 00:16 42.93706 -78.45791 23145 ft 356 kts 260°
2026-05-08 00:17 42.93323 -78.49140 23713 ft 359 kts 261°
2026-05-08 00:17 42.92935 -78.52516 24246 ft 361 kts 261°
2026-05-08 00:17 42.92546 -78.55895 24825 ft 362 kts 261°
2026-05-08 00:17 42.92153 -78.59293 25402 ft 363 kts 261°
2026-05-08 00:18 42.91760 -78.62689 25980 ft 364 kts 261°
2026-05-08 00:18 42.91368 -78.66068 26568 ft 366 kts 261°
2026-05-08 00:18 42.90967 -78.69504 27179 ft 367 kts 261°
2026-05-08 00:18 42.90565 -78.72954 27785 ft 369 kts 261°
2026-05-08 00:19 42.90160 -78.76412 28398 ft 371 kts 261°
2026-05-08 00:19 42.89750 -78.79896 29000 ft 373 kts 261°
2026-05-08 00:19 42.89337 -78.83408 29608 ft 375 kts 261°
2026-05-08 00:19 42.88921 -78.86930 30172 ft 378 kts 261°
2026-05-08 00:20 42.88501 -78.90480 30614 ft 382 kts 261°
2026-05-08 00:20 42.88074 -78.94079 31019 ft 386 kts 261°
2026-05-08 00:20 42.87649 -78.97653 31430 ft 390 kts 261°
2026-05-08 00:20 42.87210 -79.01329 31843 ft 394 kts 261°
2026-05-08 00:21 42.86767 -79.05036 32251 ft 398 kts 261°
2026-05-08 00:21 42.86318 -79.08773 32646 ft 401 kts 261°
2026-05-08 00:21 42.85864 -79.12542 33029 ft 405 kts 261°
2026-05-08 00:21 42.85406 -79.16339 33398 ft 408 kts 261°
2026-05-08 00:22 42.84942 -79.20173 33759 ft 412 kts 261°
2026-05-08 00:22 42.84473 -79.24038 34073 ft 415 kts 261°
2026-05-08 00:22 42.83999 -79.27930 34339 ft 418 kts 261°
2026-05-08 00:22 42.83519 -79.31858 34593 ft 422 kts 261°
2026-05-08 00:23 42.83035 -79.35815 34793 ft 427 kts 261°
2026-05-08 00:23 42.82549 -79.39772 34944 ft 432 kts 261°
2026-05-08 00:23 42.82050 -79.43829 35073 ft 436 kts 261°
2026-05-08 00:23 42.81552 -79.47884 35565 ft 431 kts 261°
2026-05-08 00:24 42.81067 -79.51862 36319 ft 423 kts 261°
2026-05-08 00:24 42.80584 -79.55797 36830 ft 421 kts 261°
2026-05-08 00:24 42.80097 -79.59743 37243 ft 422 kts 261°
2026-05-08 00:24 42.79607 -79.63678 37652 ft 422 kts 261°
2026-05-08 00:25 42.79113 -79.67627 37920 ft 423 kts 261°
2026-05-08 00:25 42.78618 -79.71569 37950 ft 422 kts 261°
2026-05-08 00:25 42.77821 -79.79481 37946 ft 422 kts 264°
2026-05-08 00:26 42.77511 -79.83455 37724 ft 422 kts 264°
2026-05-08 00:26 42.77200 -79.87370 37474 ft 422 kts 264°
2026-05-08 00:26 42.76877 -79.91332 37223 ft 422 kts 264°
2026-05-08 00:26 42.76549 -79.95294 36972 ft 421 kts 264°
2026-05-08 00:27 42.76217 -79.99259 36725 ft 423 kts 264°
2026-05-08 00:27 42.75879 -80.03258 36484 ft 428 kts 264°
2026-05-08 00:27 42.75536 -80.07281 36241 ft 428 kts 264°
2026-05-08 00:27 42.75192 -80.11307 36004 ft 426 kts 264°
2026-05-08 00:28 42.74849 -80.15292 35766 ft 423 kts 264°
2026-05-08 00:28 42.74507 -80.19255 35529 ft 420 kts 264°
2026-05-08 00:28 42.74165 -80.23194 35299 ft 418 kts 263°
2026-05-08 00:28 42.73825 -80.27099 35068 ft 415 kts 263°
2026-05-08 00:29 42.73488 -80.30945 34771 ft 413 kts 263°
2026-05-08 00:29 42.73149 -80.34811 34411 ft 411 kts 263°
2026-05-08 00:29 42.72816 -80.38663 34050 ft 408 kts 264°
2026-05-08 00:29 42.72626 -80.42490 33645 ft 404 kts 267°
2026-05-08 00:30 42.72496 -80.46295 33222 ft 401 kts 267°
2026-05-08 00:30 42.72361 -80.50065 32805 ft 397 kts 267°
2026-05-08 00:30 42.72216 -80.53789 32369 ft 393 kts 266°
2026-05-08 00:30 42.72064 -80.57482 31893 ft 389 kts 266°
2026-05-08 00:31 42.71909 -80.61137 31464 ft 385 kts 266°
2026-05-08 00:31 42.71753 -80.64754 31085 ft 382 kts 266°
2026-05-08 00:31 42.71595 -80.68351 30696 ft 379 kts 266°
2026-05-08 00:31 42.71439 -80.71858 30321 ft 376 kts 266°
2026-05-08 00:32 42.71280 -80.75395 29924 ft 373 kts 266°
2026-05-08 00:32 42.71122 -80.78891 29448 ft 370 kts 266°
2026-05-08 00:32 42.70963 -80.82373 29005 ft 367 kts 266°
2026-05-08 00:32 42.70804 -80.85831 28552 ft 365 kts 267°
2026-05-08 00:33 42.70645 -80.89266 28116 ft 363 kts 267°
2026-05-08 00:33 42.70490 -80.92687 27674 ft 362 kts 267°
2026-05-08 00:33 42.70329 -80.96084 27243 ft 360 kts 267°
2026-05-08 00:33 42.70168 -80.99477 26820 ft 358 kts 267°
2026-05-08 00:34 42.70006 -81.02854 26396 ft 357 kts 267°
2026-05-08 00:34 42.69845 -81.06215 25991 ft 356 kts 267°
2026-05-08 00:34 42.69686 -81.09517 25591 ft 354 kts 268°
2026-05-08 00:34 42.69525 -81.12850 25194 ft 353 kts 268°
2026-05-08 00:35 42.69363 -81.16176 24798 ft 352 kts 268°
2026-05-08 00:35 42.69201 -81.19491 24412 ft 351 kts 268°
2026-05-08 00:35 42.69038 -81.22789 24028 ft 350 kts 268°
2026-05-08 00:35 42.68875 -81.26076 23651 ft 349 kts 268°
2026-05-08 00:36 42.68711 -81.29363 23218 ft 348 kts 268°
2026-05-08 00:36 42.68548 -81.32631 22761 ft 346 kts 268°
2026-05-08 00:36 42.68383 -81.35900 22317 ft 349 kts 268°
2026-05-08 00:36 42.68149 -81.39203 21879 ft 362 kts 266°
2026-05-08 00:37 42.67856 -81.42624 21457 ft 366 kts 265°
2026-05-08 00:37 42.67551 -81.46056 21014 ft 365 kts 265°
2026-05-08 00:37 42.67247 -81.49475 20592 ft 363 kts 265°
2026-05-08 00:38 42.66654 -81.56248 19809 ft 359 kts 265°
2026-05-08 00:38 42.66363 -81.59611 19453 ft 358 kts 265°
2026-05-08 00:38 42.66073 -81.62957 19103 ft 356 kts 265°
2026-05-08 00:38 42.65783 -81.66290 18755 ft 354 kts 265°
2026-05-08 00:39 42.65495 -81.69601 18412 ft 353 kts 265°
2026-05-08 00:39 42.65211 -81.72863 18052 ft 351 kts 265°
2026-05-08 00:39 42.64923 -81.76142 17661 ft 349 kts 265°
2026-05-08 00:39 42.64637 -81.79400 17274 ft 346 kts 265°
2026-05-08 00:40 42.64354 -81.82637 16887 ft 343 kts 265°
2026-05-08 00:40 42.64073 -81.85835 16510 ft 341 kts 265°
2026-05-08 00:40 42.63790 -81.89015 16135 ft 338 kts 265°
2026-05-08 00:40 42.63508 -81.92168 15769 ft 335 kts 265°
2026-05-08 00:41 42.63228 -81.95299 15407 ft 332 kts 265°
2026-05-08 00:41 42.62950 -81.98405 15047 ft 330 kts 265°
2026-05-08 00:41 42.62677 -82.01443 14699 ft 327 kts 265°
2026-05-08 00:41 42.62398 -82.04535 14338 ft 325 kts 265°
2026-05-08 00:42 42.62128 -82.07528 13997 ft 322 kts 265°
2026-05-08 00:42 42.61856 -82.10530 13638 ft 320 kts 265°
2026-05-08 00:42 42.61585 -82.13514 13249 ft 317 kts 265°
2026-05-08 00:42 42.61315 -82.16483 12861 ft 316 kts 265°
2026-05-08 00:43 42.61046 -82.19423 12494 ft 314 kts 265°
2026-05-08 00:43 42.60777 -82.22360 12142 ft 312 kts 265°
2026-05-08 00:43 42.60509 -82.25277 11801 ft 311 kts 265°
2026-05-08 00:43 42.60242 -82.28178 11460 ft 310 kts 265°
2026-05-08 00:44 42.59974 -82.31077 11121 ft 309 kts 265°
2026-05-08 00:44 42.59707 -82.33956 10788 ft 307 kts 265°
2026-05-08 00:44 42.59442 -82.36829 10466 ft 306 kts 264°
2026-05-08 00:44 42.59179 -82.39657 10128 ft 305 kts 264°
2026-05-08 00:45 42.58767 -82.42484 9787 ft 307 kts 256°
2026-05-08 00:45 42.58023 -82.45205 9433 ft 307 kts 251°
2026-05-08 00:45 42.57201 -82.47871 9080 ft 307 kts 250°
2026-05-08 00:45 42.56367 -82.50536 8724 ft 306 kts 250°
2026-05-08 00:46 42.55534 -82.53190 8376 ft 305 kts 250°
2026-05-08 00:46 42.54978 -82.54964 8154 ft 305 kts 250°
2026-05-08 00:46 42.54743 -82.55716 8044 ft 304 kts 250°
2026-05-08 00:47 42.53920 -82.58352 7699 ft 304 kts 250°
2026-05-08 00:47 42.53094 -82.60950 7368 ft 304 kts 249°
2026-05-08 00:47 42.52219 -82.63551 6992 ft 303 kts 248°
2026-05-08 00:47 42.51342 -82.66141 6553 ft 299 kts 248°
2026-05-08 00:48 42.50495 -82.68647 6118 ft 287 kts 248°
2026-05-08 00:48 42.49676 -82.71063 5672 ft 278 kts 248°
2026-05-08 00:48 42.48881 -82.73406 5229 ft 270 kts 248°
2026-05-08 00:48 42.48112 -82.75668 4982 ft 257 kts 248°
2026-05-08 00:49 42.47387 -82.77792 4951 ft 238 kts 248°
2026-05-08 00:49 42.46711 -82.79750 4951 ft 222 kts 248°
2026-05-08 00:49 42.46061 -82.81618 4982 ft 220 kts 248°
2026-05-08 00:49 42.45409 -82.83504 4986 ft 221 kts 248°
2026-05-08 00:50 42.44753 -82.85388 4984 ft 221 kts 248°
2026-05-08 00:50 42.44117 -82.87242 4982 ft 220 kts 248°
2026-05-08 00:50 42.43463 -82.89153 4989 ft 221 kts 248°
2026-05-08 00:50 42.42825 -82.91009 4987 ft 221 kts 248°
2026-05-08 00:51 42.42187 -82.92869 4990 ft 213 kts 248°
2026-05-08 00:51 42.41576 -82.94651 4991 ft 207 kts 248°
2026-05-08 00:51 42.40971 -82.96416 4990 ft 207 kts 248°
2026-05-08 00:51 42.40364 -82.98183 4982 ft 207 kts 248°
2026-05-08 00:52 42.39762 -82.99948 4983 ft 207 kts 248°
2026-05-08 00:52 42.39165 -83.01695 4828 ft 200 kts 248°
2026-05-08 00:52 42.38586 -83.03391 4316 ft 203 kts 248°
2026-05-08 00:52 42.37997 -83.05147 3783 ft 207 kts 248°
2026-05-08 00:53 42.37411 -83.06920 3301 ft 207 kts 248°
2026-05-08 00:53 42.36835 -83.08689 3020 ft 204 kts 248°
2026-05-08 00:53 42.36266 -83.10460 2982 ft 207 kts 248°
2026-05-08 00:53 42.35691 -83.12242 2982 ft 203 kts 248°
2026-05-08 00:54 42.35144 -83.13923 2983 ft 190 kts 248°
2026-05-08 00:54 42.34618 -83.15548 2987 ft 189 kts 248°
2026-05-08 00:54 42.34096 -83.17177 2986 ft 189 kts 248°
2026-05-08 00:54 42.33575 -83.18811 2988 ft 189 kts 248°
2026-05-08 00:55 42.33066 -83.20421 2994 ft 189 kts 249°
2026-05-08 00:55 42.32679 -83.22087 2996 ft 181 kts 255°
2026-05-08 00:55 42.32363 -83.23726 2997 ft 181 kts 256°
2026-05-08 00:55 42.31981 -83.25343 2996 ft 181 kts 249°
2026-05-08 00:56 42.31397 -83.26850 2923 ft 183 kts 241°
2026-05-08 00:56 42.30552 -83.28107 2628 ft 185 kts 222°
2026-05-08 00:56 42.29429 -83.28931 2395 ft 188 kts 206°
2026-05-08 00:56 42.28461 -83.29377 2263 ft 189 kts 202°
2026-05-08 01:00 42.27532 -83.29895 2059 ft 182 kts 208°
2026-05-08 01:01 42.26433 -83.30770 1785 ft 189 kts 218°
2026-05-08 01:01 42.25304 -83.31765 1396 ft 196 kts 215°
2026-05-08 01:01 42.24138 -83.32689 1045 ft 193 kts 210°
2026-05-08 01:01 42.22969 -83.33492 791 ft 187 kts 210°
2026-05-08 01:02 42.21898 -83.34307 675 ft 179 kts 212°
2026-05-08 01:02 42.20834 -83.35054 908 ft 183 kts 209°
2026-05-08 01:02 42.19573 -83.35967 1550 ft 228 kts 210°